Погода в Яремче

Украина / Ивано-Франковская область     48°26′55″N   24°33′11″E
темп.,
°C
ветер,
м/с
пор.,
м/с
влажн.,
%
обл.,
%
осадки,
мм/ч
давл.,
гПа
погр.,
м
12 апреля, пн
пн1200:00+5юз3379100 0.0 102341
03:00+4юз3376100 0.0 102339
06:00+5юз2273100 0.0 102240
09:00+8юз126793 0.0 1021112
12:00+12ю125355 0.0 1020977
15:00+14з125052 0.1 10191463
18:00+13св015731 0.2 1018940
21:00+8ююз21835 0.3 102013
13 апреля, вт
вт1300:00+7юз228598 0.0 102028
03:00+6зюз22835 0.0 102015
06:00+5з11915 0.0 102010
09:00+9св118136 0.0 1019354
12:00+13св346242 0.0 10171175
15:00+13св346299 0.3 10161345
18:00+9ссв2583100 0.6 1015348
21:00+6с1398100 0.7 1017223
14 апреля, ср
ср1400:00+6ссв1298100 0.0 1016252
03:00+5ссв1298100 0.0 1015169
06:00+3ссв1298100 0.1 1015214
09:00+3ссв2297100 0.1 1015351
12:00+2с2299100 0.5 1016230
15:00+1с2399100 1.3 1016159
18:00−1с2397100 1.2 1017257
21:00−2ссз2396100 2.4 1018251
15 апреля, чт
чт1500:00−2ссз1394100 0.1 1018237
03:00−2ссз1296100 0.2 1018178
06:00−2ссз1297100 0.9 1018170
09:000ссз1291100 1.6 1018358
12:00+2ссв2292100 0.4 1018532
15:00+2ссв2397100 0.9 1018343
18:00+1ссв2299100 1.0 1019161
21:000ссв12100100 2.0 102096
16 апреля, пт
пт1600:00−1ссз1199100 0.6 1020116
03:00−1сз1199100 0.9 102091
06:00−2з119999 0.1 102014
09:00+1сз118899 0.1 1020388
12:00+3с2276100 0.1 1020861
15:00+4ссз1283100 0.3 1020702
18:00+3ссв1293100 0.5 1021413
21:00+1с019997 0.9 102383